TimeCDT,TemperatureF,Dew PointF,Humidity,Sea Level PressureIn,VisibilityMPH,Wind Direction,Wind SpeedMPH,Gust SpeedMPH,PrecipitationIn,Events,Conditions,WindDirDegrees,DateUTC
12:53 AM,62.1,60.1,93,29.81,10.0,ESE,6.9,-,N/A,,Clear,110,2013-05-17 05:53:00
1:53 AM,60.1,59.0,96,29.85,9.0,Calm,Calm,-,N/A,,Clear,0,2013-05-17 06:53:00
2:10 AM,59.0,57.2,94,29.86,1.5,Calm,Calm,-,N/A,,Clear,0,2013-05-17 07:10:00
2:36 AM,57.2,57.2,100,29.87,0.8,Calm,Calm,-,N/A,,Clear,0,2013-05-17 07:36:00
2:53 AM,55.9,55.9,100,29.85,1.0,Calm,Calm,-,N/A,,Clear,0,2013-05-17 07:53:00
3:00 AM,55.4,55.4,100,29.87,0.2,Calm,Calm,-,N/A,Fog,Fog,0,2013-05-17 08:00:00
3:10 AM,57.2,55.4,94,29.86,1.0,Calm,Calm,-,N/A,,Mist,0,2013-05-17 08:10:00
3:12 AM,57.2,55.4,94,29.86,2.5,Calm,Calm,-,N/A,,Partly Cloudy,0,2013-05-17 08:12:00
3:19 AM,57.2,55.4,94,29.86,0.8,Calm,Calm,-,N/A,,Mist,0,2013-05-17 08:19:00
3:28 AM,55.4,55.4,100,29.86,0.2,Calm,Calm,-,N/A,Fog,Fog,0,2013-05-17 08:28:00
3:50 AM,55.4,55.4,100,29.86,0.2,Calm,Calm,-,N/A,Fog,Fog,0,2013-05-17 08:50:00
3:53 AM,55.9,55.9,100,29.83,0.2,Calm,Calm,-,N/A,Fog,Fog,0,2013-05-17 08:53:00
4:24 AM,57.2,57.2,100,29.84,1.0,Calm,Calm,-,N/A,,Mist,0,2013-05-17 09:24:00
4:40 AM,57.2,57.2,100,29.83,2.5,SE,5.8,-,N/A,,Scattered Clouds,140,2013-05-17 09:40:00
4:49 AM,60.8,59.0,94,29.83,5.0,SE,5.8,-,N/A,,Partly Cloudy,140,2013-05-17 09:49:00
4:53 AM,60.1,59.0,96,29.81,6.0,ESE,4.6,-,N/A,,Partly Cloudy,120,2013-05-17 09:53:00
5:05 AM,60.8,59.0,94,29.84,2.0,East,3.5,-,N/A,,Mostly Cloudy,100,2013-05-17 10:05:00
5:09 AM,60.8,59.0,94,29.84,1.0,East,4.6,-,N/A,,Mist,90,2013-05-17 10:09:00
5:16 AM,60.8,60.8,100,29.85,0.8,NE,3.5,-,N/A,,Mist,50,2013-05-17 10:16:00
5:32 AM,59.0,59.0,100,29.85,0.2,East,3.5,-,N/A,Fog,Fog,90,2013-05-17 10:32:00
5:39 AM,60.8,59.0,94,29.84,0.2,ENE,4.6,-,N/A,Fog,Fog,70,2013-05-17 10:39:00
5:48 AM,60.8,59.0,94,29.85,0.2,East,3.5,-,N/A,Fog,Fog,80,2013-05-17 10:48:00
5:53 AM,60.1,59.0,96,29.83,0.2,East,3.5,-,N/A,Fog,Fog,90,2013-05-17 10:53:00
6:19 AM,60.8,60.8,100,29.86,0.2,SE,3.5,-,N/A,Fog,Fog,140,2013-05-17 11:19:00
6:26 AM,60.8,60.8,100,29.86,0.2,SE,3.5,-,N/A,Fog,Fog,130,2013-05-17 11:26:00
7:53 AM,61.0,60.1,97,29.86,0.2,SE,6.9,-,N/A,Fog,Fog,140,2013-05-17 12:53:00
8:22 AM,62.6,62.6,100,29.89,1.0,ESE,4.6,-,N/A,,Mist,120,2013-05-17 13:22:00
8:32 AM,62.6,62.6,100,29.89,2.5,ESE,4.6,-,N/A,,Overcast,120,2013-05-17 13:32:00
8:41 AM,62.6,62.6,100,29.89,5.0,SE,5.8,-,N/A,,Overcast,140,2013-05-17 13:41:00
8:53 AM,63.0,63.0,100,29.87,6.0,ESE,4.6,-,N/A,,Overcast,110,2013-05-17 13:53:00
9:53 AM,66.9,64.0,90,29.87,10.0,East,8.1,-,N/A,,Overcast,80,2013-05-17 14:53:00
10:28 AM,68.0,64.4,88,29.89,10.0,ESE,8.1,-,N/A,,Overcast,110,2013-05-17 15:28:00
10:53 AM,70.0,64.9,84,29.87,10.0,SSE,8.1,-,N/A,,Overcast,150,2013-05-17 15:53:00
11:25 AM,71.6,64.4,78,29.90,10.0,SSE,9.2,-,N/A,,Overcast,160,2013-05-17 16:25:00
11:37 AM,71.6,66.2,83,29.90,10.0,SSE,8.1,-,N/A,,Overcast,160,2013-05-17 16:37:00
11:53 AM,73.0,66.9,81,29.88,10.0,SSE,8.1,-,N/A,,Overcast,160,2013-05-17 16:53:00
12:00 PM,73.4,66.2,78,29.90,10.0,SSE,8.1,-,N/A,,Overcast,160,2013-05-17 17:00:00
12:07 PM,73.4,66.2,78,29.90,10.0,SSE,9.2,-,N/A,,Overcast,150,2013-05-17 17:07:00
12:16 PM,73.4,66.2,78,29.90,7.0,South,8.1,-,N/A,,Overcast,170,2013-05-17 17:16:00
12:53 PM,73.9,66.9,79,29.87,7.0,SE,10.4,-,N/A,,Overcast,130,2013-05-17 17:53:00
1:29 PM,75.2,66.2,73,29.89,9.0,SE,10.4,-,N/A,,Overcast,130,2013-05-17 18:29:00
2:53 PM,75.0,68.0,79,29.85,10.0,ESE,8.1,-,N/A,,Overcast,120,2013-05-17 19:53:00
3:26 PM,75.2,68.0,78,29.87,10.0,SE,8.1,-,N/A,,Overcast,130,2013-05-17 20:26:00
3:53 PM,75.9,68.0,76,29.84,10.0,East,9.2,-,N/A,,Overcast,100,2013-05-17 20:53:00
4:53 PM,75.9,69.1,79,29.82,10.0,ESE,10.4,-,N/A,,Overcast,120,2013-05-17 21:53:00
5:53 PM,75.9,69.1,79,29.82,10.0,ESE,8.1,-,N/A,,Overcast,120,2013-05-17 22:53:00
6:53 PM,75.9,69.1,79,29.82,9.0,SE,9.2,-,N/A,,Overcast,130,2013-05-17 23:53:00
7:53 PM,75.0,70.0,84,29.82,9.0,ESE,6.9,-,N/A,,Overcast,120,2013-05-18 00:53:00
8:53 PM,73.9,69.1,85,29.83,10.0,SE,6.9,-,N/A,,Mostly Cloudy,130,2013-05-18 01:53:00
9:53 PM,73.9,69.1,85,29.85,9.0,SSE,9.2,-,N/A,,Overcast,150,2013-05-18 02:53:00
10:31 PM,73.4,69.8,88,29.87,8.0,ESE,9.2,-,N/A,,Scattered Clouds,120,2013-05-18 03:31:00
10:53 PM,72.0,69.1,91,29.84,7.0,SE,8.1,-,N/A,,Partly Cloudy,130,2013-05-18 03:53:00
11:53 PM,71.1,69.1,93,29.82,7.0,ESE,10.4,-,N/A,,Clear,120,2013-05-18 04:53:00